TimeCST,TemperatureF,Dew PointF,Humidity,Sea Level PressureIn,VisibilityMPH,Wind Direction,Wind SpeedMPH,Gust SpeedMPH,PrecipitationIn,Events,Conditions,WindDirDegrees,DateUTC
12:37 AM,69.8,64.4,83,30.10,10.0,SE,13.8,-,N/A,,Overcast,140,2013-03-08 06:37:00
12:52 AM,69.1,64.9,87,30.10,10.0,SE,11.5,-,0.00,,Overcast,140,2013-03-08 06:52:00
1:07 AM,69.8,64.4,83,30.09,10.0,SE,11.5,-,N/A,,Overcast,140,2013-03-08 07:07:00
1:29 AM,68.0,64.4,88,30.08,9.0,SE,11.5,-,0.00,Rain,Light Rain,130,2013-03-08 07:29:00
1:37 AM,68.0,64.4,88,30.07,10.0,SE,17.3,21.9,0.00,Rain,Light Rain,130,2013-03-08 07:37:00
1:52 AM,68.0,66.0,93,30.07,6.0,SE,12.7,-,0.01,Rain,Light Rain,140,2013-03-08 07:52:00
2:52 AM,68.0,66.0,93,30.05,10.0,SE,11.5,-,0.00,,Overcast,140,2013-03-08 08:52:00
3:52 AM,68.0,66.0,93,30.04,10.0,SSE,10.4,-,N/A,,Overcast,150,2013-03-08 09:52:00
4:52 AM,68.0,66.0,93,30.03,10.0,SSE,10.4,-,N/A,,Overcast,150,2013-03-08 10:52:00
5:52 AM,66.9,64.9,93,30.04,10.0,SSE,9.2,-,N/A,,Scattered Clouds,150,2013-03-08 11:52:00
6:52 AM,66.9,64.9,93,30.05,10.0,SE,6.9,-,N/A,,Mostly Cloudy,130,2013-03-08 12:52:00
7:23 AM,66.2,64.4,94,30.06,10.0,SE,9.2,-,N/A,,Mostly Cloudy,140,2013-03-08 13:23:00
7:32 AM,68.0,66.2,94,30.06,10.0,SE,8.1,-,N/A,,Mostly Cloudy,140,2013-03-08 13:32:00
7:52 AM,69.1,66.0,90,30.06,10.0,SE,11.5,-,N/A,,Scattered Clouds,140,2013-03-08 13:52:00
8:52 AM,70.0,66.0,87,30.06,10.0,SE,17.3,21.9,N/A,,Clear,140,2013-03-08 14:52:00
9:52 AM,73.0,66.0,79,30.06,10.0,SE,19.6,-,N/A,,Scattered Clouds,140,2013-03-08 15:52:00
9:58 AM,73.4,64.4,73,30.06,10.0,SSE,19.6,-,N/A,,Mostly Cloudy,150,2013-03-08 15:58:00
10:52 AM,75.0,64.9,71,30.08,10.0,SSE,24.2,29.9,N/A,,Mostly Cloudy,150,2013-03-08 16:52:00
11:52 AM,77.0,63.0,62,30.05,10.0,SSE,25.3,31.1,N/A,,Mostly Cloudy,150,2013-03-08 17:52:00
12:31 PM,78.8,62.6,57,30.03,10.0,SE,24.2,29.9,N/A,,Mostly Cloudy,140,2013-03-08 18:31:00
12:52 PM,80.1,63.0,56,30.01,10.0,SSE,25.3,31.1,N/A,,Overcast,150,2013-03-08 18:52:00
1:52 PM,79.0,62.1,56,29.98,10.0,SE,23.0,31.1,N/A,,Overcast,140,2013-03-08 19:52:00
2:52 PM,77.0,62.1,60,29.98,10.0,SE,21.9,28.8,N/A,,Overcast,140,2013-03-08 20:52:00
3:52 PM,75.0,64.0,69,29.97,10.0,SE,18.4,-,N/A,,Overcast,130,2013-03-08 21:52:00
4:52 PM,73.9,64.0,71,29.98,10.0,ESE,19.6,28.8,N/A,,Mostly Cloudy,120,2013-03-08 22:52:00
5:16 PM,73.4,64.4,73,30.00,10.0,SE,19.6,-,N/A,,Mostly Cloudy,130,2013-03-08 23:16:00
5:52 PM,72.0,64.0,76,30.01,10.0,ESE,13.8,-,N/A,,Mostly Cloudy,120,2013-03-08 23:52:00
5:59 PM,71.6,64.4,78,30.02,10.0,SE,16.1,-,N/A,,Mostly Cloudy,130,2013-03-08 23:59:00
6:52 PM,71.1,64.0,78,30.01,10.0,ESE,20.7,26.5,N/A,,Mostly Cloudy,120,2013-03-09 00:52:00
7:52 PM,70.0,64.0,81,30.02,10.0,ESE,15.0,-,N/A,,Mostly Cloudy,120,2013-03-09 01:52:00
8:52 PM,70.0,64.0,81,30.04,10.0,SE,15.0,-,N/A,,Overcast,130,2013-03-09 02:52:00
9:52 PM,70.0,64.0,81,30.04,10.0,SE,17.3,-,N/A,,Mostly Cloudy,140,2013-03-09 03:52:00
10:52 PM,70.0,64.0,81,30.02,10.0,SE,16.1,-,N/A,,Partly Cloudy,140,2013-03-09 04:52:00
11:52 PM,70.0,64.0,81,30.01,10.0,SSE,15.0,-,N/A,,Partly Cloudy,150,2013-03-09 05:52:00